| time (UTC) | temp C | wind direction | speed KPH | gust KPH | rain 1hr cm | rain 24hr cm | rain mn cm | humidity % | barometer mb |
| 20260905090005 | 24 | 307 | 0.0 | 0.0 | 0.00 | 0.00 | 0.00 | 73 | 1010.7 |
| 20260905084943 | 24 | 307 | 0.0 | 0.0 | 0.00 | 0.00 | 0.00 | 70 | 1010.7 |
| 20260905084919 | 24 | 307 | 0.0 | 0.0 | 0.00 | 0.00 | 0.00 | 72 | 1010.8 |
| 20260905083245 | 24 | 307 | 0.0 | 0.0 | 0.00 | 0.00 | 0.00 | 71 | 1010.6 |
| 20260905082325 | 24 | 307 | 0.0 | 0.0 | 0.00 | 0.00 | 0.00 | 70 | 1010.7 |
| 20260905081756 | 24 | 307 | 0.0 | 0.0 | 0.00 | 0.00 | 0.00 | 70 | 1010.8 |
| 20260905080837 | 24 | 307 | 0.0 | 0.0 | 0.00 | 0.00 | 0.00 | 70 | 1010.8 |
| 20260905075131 | 24 | 307 | 0.0 | 0.0 | 0.00 | 0.00 | 0.00 | 69 | 1010.8 |
| 20260905074548 | 25 | 307 | 0.0 | 0.0 | 0.00 | 0.00 | 0.00 | 69 | 1010.8 |
| 20260905074544 | 25 | 307 | 0.0 | 0.0 | 0.00 | 0.00 | 0.00 | 69 | 1010.9 |
| 20260905074148 | 24 | 307 | 0.0 | 0.0 | 0.00 | 0.00 | 0.00 | 69 | 1010.7 |
| 20260905072250 | 25 | 307 | 0.0 | 0.0 | 0.00 | 0.00 | 0.00 | 69 | 1010.8 |
| 20260905071717 | 25 | 307 | 0.0 | 0.0 | 0.00 | 0.00 | 0.00 | 69 | 1010.9 |
| 20260905064145 | 25 | 298 | 0.0 | 0.0 | 0.00 | 0.03 | 0.00 | 67 | 1010.9 |
| 20260905063210 | 25 | 298 | 0.0 | 0.0 | 0.00 | 0.03 | 0.00 | 67 | 1010.8 |
| 20260905061836 | 25 | 298 | 0.0 | 0.0 | 0.00 | 0.03 | 0.00 | 67 | 1010.9 |
| 20260905060938 | 25 | 297 | 0.0 | 0.0 | 0.00 | 0.03 | 0.00 | 68 | 1011.2 |
| 20260905060543 | 25 | 298 | 0.0 | 0.0 | 0.00 | 0.03 | 0.00 | 67 | 1011.0 |
| 20260905055920 | 25 | 343 | 0.0 | 0.0 | 0.00 | 0.03 | 0.00 | 67 | 1011.0 |
| 20260905054559 | 25 | 297 | 0.0 | 0.0 | 0.00 | 0.03 | 0.00 | 68 | 1011.0 |
| 20260905054022 | 25 | 297 | 0.0 | 0.0 | 0.00 | 0.03 | 0.00 | 68 | 1011.2 |
| 20260905053513 | 25 | 297 | 0.0 | 0.0 | 0.00 | 0.03 | 0.00 | 68 | 1011.2 |
| 20260905052740 | 25 | 297 | 0.0 | 0.0 | 0.00 | 0.03 | 0.00 | 68 | 1011.2 |
| 20260905052059 | 25 | 297 | 0.0 | 0.0 | 0.00 | 0.03 | 0.00 | 67 | 1011.2 |
| 20260905050435 | 26 | 297 | 0.0 | 0.0 | 0.00 | 0.03 | 0.00 | 66 | 1011.5 |
| 20260905045739 | 26 | 297 | 0.0 | 0.0 | 0.00 | 0.03 | 0.00 | 66 | 1011.5 |
| 20260905045238 | 26 | 297 | 0.0 | 0.0 | 0.00 | 0.03 | 0.00 | 66 | 1011.5 |
| 20260905044328 | 26 | 297 | 0.0 | 0.0 | 0.00 | 0.00 | 0.00 | 66 | 1011.6 |
| 20260905044324 | 26 | 297 | 0.0 | 0.0 | 0.00 | 0.03 | 0.00 | 66 | 1011.6 |
| 20260905043337 | 26 | 297 | 0.0 | 0.0 | 0.00 | 0.03 | 0.00 | 66 | 1011.9 |
| 20260905042740 | 26 | 297 | 0.0 | 0.0 | 0.00 | 0.03 | 0.00 | 66 | 1011.8 |
| 20260905041919 | 26 | 297 | 0.0 | 0.0 | 0.00 | 0.03 | 0.00 | 66 | 1011.8 |
| 20260905041407 | 26 | 297 | 0.0 | 0.0 | 0.00 | 0.03 | 0.00 | 66 | 1011.8 |
| 20260905040837 | 26 | 297 | 0.0 | 0.0 | 0.00 | 0.03 | 0.00 | 66 | 1011.9 |
| 20260905040139 | 26 | 297 | 0.0 | 0.0 | 0.00 | 0.03 | 0.00 | 68 | 1011.7 |
| 20260905035917 | 26 | 297 | 0.0 | 0.0 | 0.00 | 0.03 | 0.00 | 67 | 1011.8 |
| 20260905034728 | 26 | 297 | 0.0 | 0.0 | 0.00 | 0.03 | 0.00 | 68 | 1011.8 |
| 20260905034131 | 26 | 297 | 0.0 | 0.0 | 0.00 | 0.03 | 0.00 | 68 | 1011.7 |
| 20260905033513 | 26 | 297 | 0.0 | 0.0 | 0.00 | 0.03 | 0.00 | 68 | 1011.6 |
| 20260905032953 | 26 | 297 | 0.0 | 0.0 | 0.00 | 0.03 | 0.00 | 68 | 1011.6 |
| 20260905032949 | 26 | 297 | 0.0 | 0.0 | 0.00 | 0.03 | 0.00 | 68 | 1011.6 |
| 20260905032252 | 26 | 297 | 0.0 | 0.0 | 0.00 | 0.03 | 0.00 | 68 | 1011.6 |
| 20260905031324 | 26 | 297 | 0.0 | 0.0 | 0.00 | 0.03 | 0.00 | 68 | 1011.6 |
| 20260905025734 | 27 | 297 | 0.0 | 0.0 | 0.00 | 0.03 | 0.00 | 68 | 1011.5 |
| 20260905024643 | 26 | 297 | 0.0 | 0.0 | 0.00 | 0.03 | 0.00 | 68 | 1011.5 |
| 20260905023230 | 27 | 297 | 0.0 | 0.0 | 0.00 | 0.03 | 0.00 | 68 | 1011.5 |
| 20260905023228 | 27 | 297 | 0.0 | 0.0 | 0.00 | 0.03 | 0.00 | 68 | 1011.5 |
| 20260905022547 | 27 | 297 | 0.0 | 0.0 | 0.00 | 0.03 | 0.00 | 69 | 1011.4 |
| 20260905022538 | 27 | 297 | 0.0 | 0.0 | 0.00 | 0.03 | 0.00 | 70 | 1011.5 |
| 20260905022105 | 27 | 297 | 0.0 | 0.0 | 0.00 | 0.03 | 0.00 | 68 | 1011.4 |
| 20260905020836 | 27 | 297 | 0.0 | 0.0 | 0.00 | 0.03 | 0.00 | 69 | 1011.4 |
| 20260905020052 | 27 | 297 | 0.0 | 0.0 | 0.00 | 0.03 | 0.00 | 70 | 1011.5 |
| 20260905015343 | 27 | 297 | 0.0 | 0.0 | 0.00 | 0.03 | 0.00 | 70 | 1011.5 |
| 20260905015337 | 27 | 297 | 0.0 | 0.0 | 0.00 | 0.03 | 0.00 | 70 | 1011.6 |
| 20260905014720 | 27 | 297 | 0.0 | 0.0 | 0.00 | 0.03 | 0.00 | 70 | 1011.5 |
| 20260905014108 | 27 | 297 | 0.0 | 0.0 | 0.00 | 0.03 | 0.00 | 70 | 1011.5 |
| 20260905013523 | 27 | 297 | 0.0 | 0.0 | 0.00 | 0.03 | 0.00 | 70 | 1011.5 |
| 20260905012717 | 27 | 297 | 0.0 | 0.0 | 0.00 | 0.03 | 0.00 | 70 | 1011.6 |
| 20260905012147 | 27 | 297 | 0.0 | 0.0 | 0.00 | 0.03 | 0.00 | 70 | 1011.5 |
| 20260905012137 | 27 | 297 | 0.0 | 0.0 | 0.00 | 0.03 | 0.00 | 70 | 1011.3 |
| 20260905012133 | 27 | 297 | 0.0 | 0.0 | 0.00 | 0.03 | 0.00 | 70 | 1011.4 |
| 20260905012128 | 27 | 297 | 0.0 | 0.0 | 0.00 | 0.03 | 0.00 | 69 | 1011.4 |
| 20260905012036 | 27 | 297 | 0.0 | 0.0 | 0.00 | 0.03 | 0.00 | 71 | 1011.5 |
| 20260905011447 | 27 | 297 | 0.0 | 0.0 | 0.00 | 0.03 | 0.00 | 70 | 1011.5 |
| 20260905010918 | 27 | 297 | 0.0 | 0.0 | 0.00 | 0.03 | 0.00 | 70 | 1011.5 |
| 20260905010138 | 27 | 297 | 0.0 | 0.0 | 0.00 | 0.03 | 0.00 | 70 | 1011.3 |
| 20260905005513 | 27 | 297 | 0.0 | 0.0 | 0.00 | 0.03 | 0.00 | 70 | 1011.4 |
| 20260905005013 | 27 | 297 | 0.0 | 0.0 | 0.00 | 0.03 | 0.00 | 69 | 1011.4 |
| 20260905004941 | 28 | 297 | 0.0 | 0.0 | 0.00 | 0.03 | 0.00 | 69 | 1011.1 |
| 20260905004413 | 28 | 297 | 0.0 | 0.0 | 0.00 | 0.03 | 0.00 | 69 | 1011.3 |
| 20260905003913 | 28 | 297 | 0.0 | 0.0 | 0.00 | 0.03 | 0.00 | 69 | 1011.2 |
| 20260905003328 | 28 | 297 | 0.0 | 0.0 | 0.00 | 0.03 | 0.00 | 69 | 1011.1 |
| 20260905002706 | 28 | 297 | 0.0 | 0.0 | 0.00 | 0.03 | 0.00 | 68 | 1011.0 |
| 20260905001738 | 28 | 297 | 0.0 | 0.0 | 0.00 | 0.03 | 0.00 | 66 | 1011.0 |
| 20260905001733 | 28 | 297 | 0.0 | 0.0 | 0.00 | 0.03 | 0.00 | 66 | 1011.1 |
| 20260905000855 | 28 | 297 | 0.0 | 0.0 | 0.00 | 0.03 | 0.00 | 67 | 1011.0 |
| 20260905000218 | 28 | 297 | 0.0 | 0.0 | 0.00 | 0.03 | 0.00 | 67 | 1011.1 |
| 20260904235513 | 28 | 297 | 0.0 | 0.0 | 0.00 | 0.03 | 0.00 | 66 | 1011.0 |
| 20260904235000 | 28 | 297 | 0.0 | 0.0 | 0.00 | 0.03 | 0.00 | 66 | 1011.1 |
| 20260904234334 | 28 | 297 | 0.0 | 0.0 | 0.00 | 0.03 | 0.00 | 65 | 1011.1 |
| 20260904233818 | 28 | 297 | 0.0 | 0.0 | 0.00 | 0.03 | 0.00 | 65 | 1011.1 |
| 20260904233220 | 29 | 297 | 0.0 | 0.0 | 0.00 | 0.03 | 0.00 | 65 | 1011.3 |
| 20260904231934 | 29 | 297 | 0.0 | 0.0 | 0.00 | 0.03 | 0.00 | 64 | 1011.2 |
| 20260904231344 | 29 | 297 | 0.0 | 0.0 | 0.00 | 0.03 | 0.00 | 63 | 1011.2 |
| 20260904231331 | 30 | 315 | 0.0 | 0.0 | 0.00 | 0.03 | 0.00 | 62 | 1011.3 |
| 20260904230651 | 29 | 297 | 0.0 | 0.0 | 0.00 | 0.03 | 0.00 | 63 | 1011.2 |
| 20260904225938 | 29 | 297 | 0.0 | 0.0 | 0.00 | 0.03 | 0.00 | 63 | 1011.2 |
| 20260904225221 | 29 | 315 | 0.0 | 0.0 | 0.00 | 0.03 | 0.00 | 62 | 1011.3 |
| 20260904224636 | 30 | 315 | 0.0 | 0.0 | 0.00 | 0.03 | 0.00 | 62 | 1011.3 |
| 20260904223940 | 30 | 315 | 0.0 | 0.0 | 0.00 | 0.03 | 0.00 | 61 | 1011.3 |
| 20260904223240 | 30 | 301 | 0.0 | 0.0 | 0.00 | 0.03 | 0.00 | 61 | 1011.3 |
| 20260904222725 | 30 | 308 | 3.2 | 1.6 | 0.00 | 0.03 | 0.00 | 60 | 1011.2 |
| 20260904222113 | 30 | 354 | 3.2 | 3.2 | 0.00 | 0.03 | 0.00 | 60 | 1011.3 |
| 20260904221434 | 30 | 350 | 0.0 | 0.0 | 0.00 | 0.03 | 0.00 | 59 | 1011.2 |
| 20260904220937 | 30 | 194 | 0.0 | 1.6 | 0.00 | 0.03 | 0.00 | 57 | 1011.2 |
| 20260904220929 | 30 | 349 | 0.0 | 0.0 | 0.00 | 0.03 | 0.00 | 58 | 1011.2 |
| 20260904220716 | 30 | 350 | 1.6 | 0.0 | 0.00 | 0.03 | 0.00 | 59 | 1011.1 |
| 20260904214925 | 30 | 194 | 0.0 | 1.6 | 0.00 | 0.03 | 0.00 | 57 | 1011.2 |
| 20260904214322 | 30 | 349 | 0.0 | 0.0 | 0.00 | 0.03 | 0.00 | 58 | 1011.2 |
| 20260904213733 | 31 | 343 | 1.6 | 0.0 | 0.00 | 0.03 | 0.00 | 56 | 1010.9 |
| 20260904213204 | 31 | 328 | 0.0 | 0.0 | 0.00 | 0.03 | 0.00 | 56 | 1011.3 |
| 20260904211344 | 31 | 343 | 1.6 | 0.0 | 0.00 | 0.03 | 0.00 | 56 | 1010.9 |
| 20260904210529 | 32 | 276 | 0.0 | 0.0 | 0.00 | 0.03 | 0.00 | 54 | 1011.2 |
| 20260904210315 | 31 | 270 | 3.2 | 0.0 | 0.00 | 0.03 | 0.00 | 56 | 1010.9 |
| 20260904205716 | 31 | 3 | 3.2 | 4.8 | 0.00 | 0.03 | 0.00 | 56 | 1011.0 |
| 20260904204959 | 31 | 330 | 0.0 | 1.6 | 0.00 | 0.03 | 0.00 | 56 | 1011.1 |
| 20260904204451 | 31 | 15 | 3.2 | 0.0 | 0.00 | 0.03 | 0.00 | 55 | 1011.1 |
| 20260904203824 | 32 | 276 | 0.0 | 0.0 | 0.00 | 0.03 | 0.00 | 54 | 1011.2 |
| 20260904203337 | 32 | 354 | 3.2 | 1.6 | 0.00 | 0.03 | 0.00 | 54 | 1011.4 |
| 20260904203328 | 32 | 14 | 3.2 | 3.2 | 0.00 | 0.03 | 0.00 | 54 | 1011.4 |
| 20260904203234 | 32 | 259 | 0.0 | 0.0 | 0.00 | 0.03 | 0.00 | 54 | 1011.2 |
| 20260904202636 | 32 | 10 | 3.2 | 0.0 | 0.00 | 0.03 | 0.00 | 54 | 1011.2 |
| 20260904202131 | 32 | 283 | 1.6 | 3.2 | 0.00 | 0.03 | 0.00 | 54 | 1011.3 |
| 20260904201330 | 32 | 354 | 3.2 | 1.6 | 0.00 | 0.03 | 0.00 | 54 | 1011.4 |
| 20260904200825 | 32 | 14 | 3.2 | 3.2 | 0.00 | 0.03 | 0.00 | 54 | 1011.4 |
| 20260904200104 | 32 | 4 | 1.6 | 3.2 | 0.00 | 0.03 | 0.00 | 55 | 1011.4 |
| 20260904195254 | 32 | 347 | 3.2 | 1.6 | 0.00 | 0.03 | 0.00 | 54 | 1011.5 |
| 20260904194645 | 32 | 340 | 3.2 | 6.4 | 0.00 | 0.03 | 0.00 | 54 | 1011.6 |
| 20260904194130 | 32 | 316 | 3.2 | 1.6 | 0.00 | 0.03 | 0.00 | 54 | 1011.7 |
| 20260904193451 | 32 | 79 | 0.0 | 0.0 | 0.00 | 0.03 | 0.00 | 54 | 1011.8 |
| 20260904192929 | 32 | 267 | 1.6 | 1.6 | 0.00 | 0.03 | 0.00 | 54 | 1012.1 |
| 20260904192905 | 32 | 298 | 1.6 | 0.0 | 0.00 | 0.03 | 0.00 | 53 | 1012.0 |
| 20260904192403 | 32 | 172 | 0.0 | 0.0 | 0.00 | 0.03 | 0.00 | 54 | 1012.0 |
| 20260904191833 | 32 | 198 | 1.6 | 0.0 | 0.00 | 0.03 | 0.00 | 55 | 1012.0 |
| 20260904191101 | 32 | 28 | 1.6 | 1.6 | 0.00 | 0.03 | 0.00 | 55 | 1012.0 |
| 20260904190421 | 32 | 267 | 1.6 | 1.6 | 0.00 | 0.03 | 0.00 | 54 | 1012.1 |
| 20260904185728 | 33 | 332 | 0.0 | 1.6 | 0.00 | 0.03 | 0.00 | 53 | 1012.1 |
| 20260904185350 | 32 | 115 | 1.6 | 1.6 | 0.00 | 0.03 | 0.00 | 54 | 1011.9 |
| 20260904183513 | 33 | 332 | 0.0 | 1.6 | 0.00 | 0.03 | 0.00 | 53 | 1012.1 |
| 20260904182938 | 32 | 169 | 0.0 | 3.2 | 0.00 | 0.03 | 0.00 | 54 | 1012.0 |
| 20260904182528 | 32 | 259 | 1.6 | 0.0 | 0.00 | 0.03 | 0.00 | 53 | 1012.2 |
| 20260904182223 | 32 | 179 | 1.6 | 1.6 | 0.00 | 0.03 | 0.00 | 55 | 1012.1 |
| 20260904181513 | 32 | 319 | 0.0 | 3.2 | 0.00 | 0.03 | 0.00 | 54 | 1012.2 |
| 20260904181006 | 32 | 315 | 0.0 | 0.0 | 0.00 | 0.03 | 0.00 | 55 | 1012.2 |
| 20260904180408 | 32 | 259 | 1.6 | 0.0 | 0.00 | 0.03 | 0.00 | 53 | 1012.2 |
| 20260904175334 | 32 | 322 | 1.6 | 1.6 | 0.00 | 0.03 | 0.00 | 54 | 1012.2 |
| 20260904175321 | 32 | 346 | 1.6 | 3.2 | 0.00 | 0.03 | 0.00 | 54 | 1012.0 |
| 20260904175252 | 32 | 359 | 3.2 | 6.4 | 0.00 | 0.03 | 0.00 | 54 | 1012.2 |
| 20260904173938 | 32 | 329 | 0.0 | 3.2 | 0.00 | 0.03 | 0.00 | 54 | 1012.2 |
| 20260904173423 | 32 | 322 | 1.6 | 1.6 | 0.00 | 0.03 | 0.00 | 54 | 1012.2 |
| 20260904172905 | 32 | 42 | 0.0 | 4.8 | 0.00 | 0.03 | 0.00 | 54 | 1012.1 |
| 20260904172342 | 32 | 346 | 1.6 | 3.2 | 0.00 | 0.03 | 0.00 | 54 | 1012.0 |
| 20260904172135 | 32 | 105 | 1.6 | 0.0 | 0.00 | 0.03 | 0.00 | 54 | 1012.1 |
| 20260904172118 | 32 | 352 | 3.2 | 0.0 | 0.00 | 0.03 | 0.00 | 54 | 1012.1 |
| 20260904171742 | 32 | 359 | 1.6 | 3.2 | 0.00 | 0.03 | 0.00 | 53 | 1012.1 |
| 20260904171051 | 32 | 105 | 0.0 | 0.0 | 0.00 | 0.03 | 0.00 | 54 | 1012.2 |
| 20260904170459 | 32 | 105 | 1.6 | 0.0 | 0.00 | 0.03 | 0.00 | 54 | 1012.1 |
| 20260904165906 | 32 | 34 | 1.6 | 3.2 | 0.00 | 0.03 | 0.00 | 54 | 1012.1 |
| 20260904165130 | 32 | 352 | 3.2 | 0.0 | 0.00 | 0.03 | 0.00 | 54 | 1012.1 |
| 20260904164935 | 31 | 314 | 1.6 | 0.0 | 0.00 | 0.03 | 0.00 | 56 | 1012.1 |
| 20260904164927 | 31 | 333 | 0.0 | 0.0 | 0.00 | 0.03 | 0.00 | 57 | 1012.2 |
| 20260904164603 | 32 | 21 | 4.8 | 0.0 | 0.00 | 0.03 | 0.00 | 54 | 1012.1 |
| 20260904164059 | 31 | 339 | 0.0 | 0.0 | 0.00 | 0.03 | 0.00 | 56 | 1012.1 |
| 20260904163539 | 31 | 250 | 1.6 | 0.0 | 0.00 | 0.03 | 0.00 | 57 | 1012.1 |
| 20260904163036 | 31 | 314 | 1.6 | 0.0 | 0.00 | 0.03 | 0.00 | 56 | 1012.1 |
| 20260904162536 | 31 | 333 | 0.0 | 0.0 | 0.00 | 0.03 | 0.00 | 57 | 1012.2 |
| 20260904161952 | 31 | 4 | 1.6 | 0.0 | 0.00 | 0.03 | 0.00 | 57 | 1012.3 |
| 20260904161734 | 30 | 323 | 3.2 | 0.0 | 0.00 | 0.03 | 0.00 | 59 | 1012.3 |
| 20260904161720 | 30 | 330 | 3.2 | 1.6 | 0.00 | 0.03 | 0.00 | 62 | 1012.4 |
| 20260904161244 | 30 | 11 | 4.8 | 1.6 | 0.00 | 0.03 | 0.00 | 58 | 1012.3 |
| 20260904160710 | 30 | 323 | 3.2 | 0.0 | 0.00 | 0.03 | 0.00 | 59 | 1012.3 |
| 20260904154837 | 30 | 330 | 3.2 | 1.6 | 0.00 | 0.03 | 0.00 | 62 | 1012.4 |
| 20260904152253 | 28 | 18 | 1.6 | 0.0 | 0.00 | 0.03 | 0.00 | 66 | 1012.6 |
| 20260904151749 | 28 | 11 | 0.0 | 0.0 | 0.00 | 0.03 | 0.00 | 67 | 1012.6 |
| 20260904151323 | 28 | 357 | 4.8 | 4.8 | 0.00 | 0.03 | 0.00 | 69 | 1012.5 |
| 20260904151142 | 28 | 20 | 4.8 | 6.4 | 0.00 | 0.03 | 0.00 | 67 | 1012.6 |
| 20260904150623 | 28 | 323 | 1.6 | 0.0 | 0.00 | 0.03 | 0.00 | 67 | 1012.5 |
| 20260904150120 | 28 | 1 | 1.6 | 6.4 | 0.00 | 0.03 | 0.00 | 68 | 1012.6 |
| 20260904145554 | 28 | 18 | 1.6 | 3.2 | 0.00 | 0.03 | 0.00 | 68 | 1012.5 |
| 20260904145055 | 28 | 357 | 4.8 | 4.8 | 0.00 | 0.03 | 0.00 | 69 | 1012.5 |
| 20260904144556 | 28 | 203 | 1.6 | 0.0 | 0.00 | 0.03 | 0.00 | 70 | 1012.6 |
| 20260904144128 | 27 | 307 | 0.0 | 0.0 | 0.00 | 0.03 | 0.00 | 75 | 1012.6 |
| 20260904142924 | 27 | 354 | 1.6 | 3.2 | 0.00 | 0.03 | 0.00 | 73 | 1012.6 |
| 20260904142327 | 27 | 315 | 1.6 | 0.0 | 0.00 | 0.03 | 0.00 | 74 | 1012.6 |
| 20260904141750 | 27 | 307 | 0.0 | 0.0 | 0.00 | 0.03 | 0.00 | 75 | 1012.6 |
| 20260904141245 | 27 | 30 | 3.2 | 4.8 | 0.00 | 0.03 | 0.00 | 75 | 1012.6 |
| 20260904140924 | 27 | 345 | 1.6 | 0.0 | 0.00 | 0.03 | 0.00 | 81 | 1012.5 |
| 20260904140515 | 27 | 350 | 1.6 | 6.4 | 0.00 | 0.03 | 0.00 | 78 | 1012.5 |
| 20260904134432 | 27 | 345 | 1.6 | 0.0 | 0.00 | 0.03 | 0.00 | 81 | 1012.5 |
| 20260904133720 | 26 | 319 | 3.2 | 0.0 | 0.00 | 0.03 | 0.00 | 87 | 1012.3 |
| 20260904133716 | 27 | 339 | 1.6 | 0.0 | 0.00 | 0.03 | 0.00 | 82 | 1012.4 |
| 20260904132717 | 26 | 359 | 3.2 | 4.8 | 0.00 | 0.03 | 0.00 | 84 | 1012.2 |
| 20260904132029 | 26 | 1 | 1.6 | 0.0 | 0.00 | 0.03 | 0.00 | 85 | 1012.2 |
| 20260904131245 | 26 | 319 | 3.2 | 0.0 | 0.00 | 0.03 | 0.00 | 87 | 1012.3 |
| 20260904131241 | 26 | 319 | 3.2 | 0.0 | 0.00 | 0.03 | 0.00 | 87 | 1012.3 |
| 20260904130622 | 26 | 10 | 0.0 | 0.0 | 0.00 | 0.03 | 0.00 | 88 | 1012.2 |
| 20260904130528 | 26 | 125 | 0.0 | 4.8 | 0.00 | 0.03 | 0.00 | 90 | 1012.3 |
| 20260904130521 | 26 | 316 | 1.6 | 0.0 | 0.00 | 0.03 | 0.00 | 90 | 1012.3 |
| 20260904130051 | 26 | 349 | 0.0 | 0.0 | 0.00 | 0.03 | 0.00 | 89 | 1012.2 |
| 20260904125413 | 26 | 339 | 0.0 | 1.6 | 0.00 | 0.03 | 0.00 | 89 | 1012.3 |
| 20260904124825 | 26 | 125 | 0.0 | 4.8 | 0.00 | 0.03 | 0.00 | 90 | 1012.3 |
| 20260904124326 | 26 | 316 | 1.6 | 0.0 | 0.00 | 0.03 | 0.00 | 90 | 1012.3 |
| 20260904123749 | 25 | 357 | 0.0 | 0.0 | 0.00 | 0.03 | 0.00 | 91 | 1012.2 |
| 20260904123325 | 25 | 293 | 0.0 | 0.0 | 0.00 | 0.03 | 0.00 | 94 | 1012.2 |
| 20260904123311 | 25 | 194 | 0.0 | 0.0 | 0.00 | 0.03 | 0.00 | 95 | 1012.2 |
| 20260904123235 | 26 | 49 | 1.6 | 3.2 | 0.00 | 0.03 | 0.00 | 92 | 1012.2 |
| 20260904122513 | 25 | 293 | 0.0 | 0.0 | 0.00 | 0.03 | 0.00 | 93 | 1012.3 |
| 20260904122008 | 25 | 293 | 0.0 | 0.0 | 0.00 | 0.03 | 0.00 | 93 | 1012.2 |
| 20260904121440 | 25 | 293 | 0.0 | 0.0 | 0.00 | 0.03 | 0.00 | 94 | 1012.2 |
| 20260904121437 | 25 | 293 | 0.0 | 0.0 | 0.00 | 0.03 | 0.00 | 94 | 1012.2 |
| 20260904120834 | 25 | 194 | 0.0 | 0.0 | 0.00 | 0.03 | 0.00 | 94 | 1012.1 |
| 20260904120302 | 25 | 194 | 0.0 | 0.0 | 0.00 | 0.03 | 0.00 | 95 | 1012.2 |
| 20260904120127 | 25 | 194 | 0.0 | 0.0 | 0.00 | 0.03 | 0.00 | 96 | 1012.3 |
| 20260904120119 | 24 | 194 | 0.0 | 0.0 | 0.00 | 0.03 | 0.00 | 97 | 1012.1 |
| 20260904115743 | 25 | 194 | 0.0 | 0.0 | 0.00 | 0.03 | 0.00 | 95 | 1012.3 |
| 20260904114426 | 25 | 194 | 0.0 | 0.0 | 0.00 | 0.03 | 0.00 | 96 | 1012.3 |
| 20260904113906 | 24 | 194 | 0.0 | 0.0 | 0.00 | 0.03 | 0.00 | 97 | 1012.1 |
| 20260904113309 | 24 | 191 | 0.0 | 0.0 | 0.00 | 0.03 | 0.00 | 97 | 1012.1 |
| 20260904112916 | 23 | 169 | 0.0 | 0.0 | 0.00 | 0.03 | 0.00 | 96 | 1011.7 |
| 20260904112911 | 23 | 169 | 0.0 | 0.0 | 0.00 | 0.03 | 0.00 | 96 | 1011.6 |
| 20260904112716 | 23 | 224 | 0.0 | 0.0 | 0.00 | 0.03 | 0.00 | 97 | 1011.9 |
| 20260904111922 | 23 | 224 | 0.0 | 0.0 | 0.00 | 0.03 | 0.00 | 96 | 1011.9 |
| 20260904111414 | 23 | 211 | 0.0 | 0.0 | 0.00 | 0.03 | 0.00 | 96 | 1011.7 |
| 20260904110859 | 23 | 191 | 0.0 | 1.6 | 0.00 | 0.03 | 0.00 | 96 | 1011.8 |
| 20260904110358 | 23 | 169 | 0.0 | 0.0 | 0.00 | 0.03 | 0.00 | 96 | 1011.7 |
| 20260904105857 | 23 | 169 | 0.0 | 0.0 | 0.00 | 0.03 | 0.00 | 96 | 1011.6 |
| 20260904105709 | 23 | 177 | 1.6 | 1.6 | 0.00 | 0.03 | 0.00 | 96 | 1011.5 |
| 20260904105349 | 23 | 169 | 0.0 | 0.0 | 0.00 | 0.03 | 0.00 | 96 | 1011.6 |
| 20260904104834 | 23 | 169 | 0.0 | 0.0 | 0.00 | 0.03 | 0.00 | 96 | 1011.6 |
| 20260904104226 | 23 | 190 | 0.0 | 0.0 | 0.00 | 0.03 | 0.00 | 96 | 1011.4 |
| 20260904103706 | 23 | 146 | 0.0 | 0.0 | 0.00 | 0.03 | 0.00 | 96 | 1011.5 |
| 20260904103204 | 23 | 149 | 0.0 | 0.0 | 0.00 | 0.03 | 0.00 | 96 | 1011.4 |
| 20260904102604 | 23 | 177 | 1.6 | 1.6 | 0.00 | 0.03 | 0.00 | 96 | 1011.5 |
| 20260904102510 | 23 | 208 | 0.0 | 0.0 | 0.00 | 0.03 | 0.00 | 95 | 1011.4 |
| 20260904101349 | 23 | 219 | 0.0 | 0.0 | 0.00 | 0.03 | 0.00 | 95 | 1011.4 |
| 20260904101307 | 23 | 219 | 0.0 | 0.0 | 0.00 | 0.03 | 0.00 | 95 | 1011.4 |
| 20260904100611 | 23 | 208 | 0.0 | 0.0 | 0.00 | 0.03 | 0.00 | 95 | 1011.5 |
| 20260904095739 | 23 | 208 | 0.0 | 0.0 | 0.00 | 0.03 | 0.00 | 95 | 1011.4 |
| 20260904095323 | 23 | 177 | 0.0 | 0.0 | 0.00 | 0.03 | 0.00 | 95 | 1011.4 |
| 20260904095314 | 24 | 176 | 0.0 | 1.6 | 0.00 | 0.03 | 0.00 | 95 | 1011.4 |
| 20260904095131 | 23 | 246 | 0.0 | 0.0 | 0.00 | 0.03 | 0.00 | 95 | 1011.4 |
| 20260904094415 | 23 | 158 | 0.0 | 1.6 | 0.00 | 0.03 | 0.00 | 95 | 1011.3 |
| 20260904093832 | 23 | 221 | 0.0 | 0.0 | 0.00 | 0.03 | 0.00 | 95 | 1011.4 |
| 20260904093300 | 23 | 177 | 0.0 | 0.0 | 0.00 | 0.03 | 0.00 | 95 | 1011.4 |
| 20260904092545 | 24 | 176 | 0.0 | 1.6 | 0.00 | 0.03 | 0.00 | 95 | 1011.4 |
| 20260904092124 | 24 | 174 | 0.0 | 1.6 | 0.00 | 0.03 | 0.00 | 95 | 1011.6 |
| 20260904092114 | 24 | 242 | 1.6 | 3.2 | 0.00 | 0.03 | 0.00 | 95 | 1011.4 |
| 20260904091720 | 24 | 201 | 0.0 | 0.0 | 0.00 | 0.03 | 0.00 | 95 | 1011.4 |
| 20260904090932 | 24 | 174 | 0.0 | 0.0 | 0.00 | 0.03 | 0.00 | 95 | 1011.4 |
| 20260904090313 | 24 | 174 | 0.0 | 1.6 | 0.00 | 0.03 | 0.00 | 95 | 1011.6 |